Theta_e
294 287 284 283 283 286 288 289 290 290 288 289 289 288 286 286 287 289 290 292 293 288 287 286 289 290 298 307 310 311 309 309 310 314 316 318 319 319 317 316 316 316 317 319 320 320 320 319 320 320 321 322 324 324 325 325 325 325 325 324 323 324 323 322 318 318 318 316 316 316 317 316 315 318 317 317 317 318 319 321 323 323 322 322 324 326
295 286 285 287 289 290 291 291 291 292 292 290 288 287 284 286 285 290 291 294 295 291 288 287 288 290 298 302 302 306 307 308 310 312 314 315 317 317 317 315 315 316 318 320 319 320 319 319 320 321 321 323 322 323 325 324 324 323 324 324 323 321 320 319 318 318 317 316 318 317 315 315 315 316 316 314 315 316 319 318 317 316 315 317 320 324
285 284 288 290 292 293 293 293 293 292 292 290 287 285 285 283 286 289 290 294 296 289 287 288 289 289 292 295 301 306 307 308 312 314 315 315 314 315 315 315 314 315 316 318 319 319 319 319 320 320 320 322 322 324 325 325 323 322 322 323 321 319 317 315 316 316 316 314 317 317 314 316 312 313 314 315 317 317 316 315 315 316 315 315 314 318
284 284 291 293 292 292 291 293 292 290 289 288 285 285 284 283 286 283 288 292 295 293 290 289 288 289 290 292 295 306 308 308 310 312 313 316 315 314 314 315 314 314 315 316 317 317 318 318 319 320 321 323 322 323 324 324 323 322 323 321 319 317 316 315 318 318 316 317 316 316 315 313 313 314 316 314 314 314 314 314 315 315 315 315 315 315
286 288 292 293 292 292 291 292 292 289 287 287 289 286 284 287 286 286 287 291 292 293 291 288 285 286 288 291 294 298 299 306 307 310 309 311 313 314 314 313 314 315 315 316 316 316 316 317 318 320 322 323 322 323 324 324 323 323 322 321 319 317 316 317 320 317 318 318 315 315 314 315 314 314 313 314 312 314 316 314 314 313 313 314 314 314
288 292 294 293 292 292 291 289 289 290 284 283 287 289 288 288 289 289 289 288 283 282 290 288 278 282 284 287 291 295 301 303 305 307 308 311 311 312 312 312 312 312 314 316 316 316 317 317 318 319 322 322 322 322 324 325 325 324 323 322 319 318 317 318 317 317 318 317 314 313 312 310 309 311 310 309 310 310 311 311 312 312 313 313 312 311
288 292 294 292 291 291 290 288 289 291 283 284 287 290 290 290 290 290 288 285 282 282 290 291 282 278 281 290 290 291 298 302 302 305 307 307 308 310 312 312 311 312 313 314 314 315 315 316 318 318 321 322 321 322 325 325 325 324 324 322 321 319 318 318 317 317 318 315 314 313 312 311 311 310 308 308 309 311 310 311 311 311 312 311 311 310
294 292 292 293 292 290 288 286 290 290 285 285 288 290 291 290 291 291 288 286 283 286 290 287 283 281 281 284 289 290 294 298 300 301 303 307 307 309 311 312 311 312 313 314 315 315 315 316 319 319 321 323 323 323 324 325 325 324 324 323 321 320 319 318 317 316 317 315 313 311 310 312 310 311 311 310 310 310 311 311 311 311 310 311 310 310
291 290 292 291 290 287 287 287 291 290 287 286 291 291 290 291 290 289 287 285 286 286 283 282 288 283 279 282 289 291 292 294 299 301 302 305 307 307 310 312 311 313 314 315 315 314 315 316 318 319 320 323 323 323 323 324 325 325 324 323 321 319 318 316 316 316 315 316 313 312 312 311 311 311 312 312 312 311 310 310 309 310 308 308 308 308
293 292 292 292 288 287 288 289 292 292 290 291 292 291 290 291 290 288 284 286 283 281 278 283 286 282 278 280 285 287 288 291 296 301 303 304 306 308 310 312 312 312 314 316 316 316 316 317 319 320 321 322 323 323 324 324 325 325 324 322 321 318 316 316 315 315 313 314 314 312 312 311 310 312 310 310 310 309 309 309 307 306 306 307 307 308
293 297 299 293 291 290 291 291 292 293 292 293 291 291 286 285 285 285 283 282 280 276 277 282 286 283 278 279 284 286 290 289 289 291 295 299 303 307 308 312 312 312 314 316 316 314 314 315 317 319 320 321 321 323 324 324 324 325 323 321 319 316 316 315 314 313 313 313 313 313 313 313 313 312 311 311 308 309 308 309 306 306 306 306 306 307
290 290 294 292 298 293 293 291 291 290 290 291 289 284 285 285 281 279 277 279 273 271 276 282 285 284 280 279 284 287 290 291 292 292 295 297 301 305 307 311 312 312 314 315 314 313 313 313 314 317 319 319 321 322 323 323 324 323 322 320 317 315 316 315 313 312 313 313 313 313 313 314 313 312 312 311 310 308 308 306 306 306 305 304 305 305
288 288 288 291 299 294 290 289 287 287 286 288 286 284 280 277 273 277 275 277 274 275 284 284 285 283 281 281 288 291 292 293 292 293 294 298 301 305 308 311 311 311 312 312 312 312 312 313 314 316 318 317 318 322 323 322 320 318 318 318 317 316 316 315 314 313 312 312 313 314 313 313 314 313 312 312 311 309 309 307 305 304 304 304 305 305
284 286 289 290 292 295 292 286 282 286 283 286 285 279 278 274 269 268 269 271 276 280 283 283 285 282 281 287 290 292 295 296 300 300 300 302 303 306 309 309 309 309 310 311 312 313 312 313 314 316 317 318 318 320 321 319 317 318 320 320 319 317 318 316 315 314 312 313 314 314 314 314 314 312 312 312 313 311 309 309 306 305 305 305 304 304
276 280 286 288 288 292 290 287 286 283 283 283 284 286 282 276 275 271 274 271 274 277 280 284 282 279 278 285 293 295 298 303 304 305 305 305 305 306 307 309 309 310 309 310 310 312 312 312 312 314 316 317 317 316 318 316 318 320 319 319 318 317 318 317 315 313 313 314 314 314 314 314 313 313 313 314 314 312 310 308 306 305 305 305 305 305
283 278 286 290 294 292 290 291 289 285 285 286 285 285 282 280 278 279 276 278 278 278 277 282 279 280 286 291 294 295 301 303 305 305 306 305 306 307 307 307 308 309 310 311 310 310 310 311 310 310 312 313 313 315 316 315 317 318 318 317 317 317 317 318 316 314 315 316 315 314 314 314 314 315 314 314 314 312 310 310 309 307 306 306 305 304
281 282 287 289 291 290 290 292 291 288 282 284 285 282 282 285 284 276 277 280 274 275 275 273 281 283 285 289 292 295 299 299 302 304 305 305 306 306 306 307 308 308 309 309 309 309 309 309 308 310 310 311 312 314 315 315 316 318 319 318 316 316 317 318 318 315 316 315 315 314 314 314 313 313 313 314 313 313 313 311 309 308 308 306 306 307
281 279 285 287 288 292 292 292 291 290 288 284 281 281 288 290 287 281 274 273 269 270 271 278 276 279 278 279 288 291 294 295 298 300 302 303 305 305 306 307 308 309 309 310 310 310 309 310 310 310 311 313 314 314 314 314 315 317 318 317 316 315 316 318 317 315 316 316 314 314 315 315 315 314 314 315 314 313 313 311 309 309 308 308 308 308
285 281 283 287 288 290 291 290 290 290 290 287 284 287 285 277 281 279 278 270 271 270 270 277 277 281 280 281 285 289 292 295 297 298 301 303 305 306 306 307 308 309 309 310 310 309 308 308 309 309 309 313 313 315 315 314 315 315 315 316 316 317 316 317 317 317 317 317 317 316 316 316 315 315 315 316 316 314 314 312 311 310 310 308 308 309
283 280 280 285 288 289 288 286 279 285 288 287 288 286 286 281 278 278 275 277 277 268 269 274 276 276 286 284 288 288 290 296 297 298 298 300 303 304 304 306 305 304 305 306 307 307 306 307 308 308 308 311 313 314 314 314 314 314 314 315 315 316 316 317 316 316 315 317 317 317 316 316 316 315 315 316 315 314 314 313 312 311 309 310 309 308
282 282 277 283 287 287 283 284 284 282 282 282 282 279 283 283 283 282 282 280 277 268 264 269 271 279 281 286 290 290 291 296 300 299 300 301 302 304 304 303 304 304 304 305 306 306 306 306 306 308 308 309 311 313 313 313 314 313 314 315 316 316 315 315 316 316 316 316 316 316 315 314 314 315 316 315 315 314 314 314 313 312 312 310 309 309
281 281 280 279 283 281 284 288 289 287 284 284 282 283 281 279 281 278 274 281 278 276 269 268 269 276 283 293 294 292 292 295 300 302 302 304 304 303 304 303 303 303 303 304 304 305 306 306 307 308 309 309 309 309 310 310 311 311 313 315 315 315 315 315 315 316 316 316 316 314 314 313 314 315 316 315 316 314 314 314 314 314 312 311 311 311
286 281 279 281 283 285 287 290 290 289 289 288 286 285 284 281 278 275 272 277 278 280 279 277 275 276 285 290 292 293 294 297 299 301 301 302 303 305 305 304 303 303 305 305 305 305 305 305 306 307 307 306 307 307 308 309 311 312 311 312 313 314 314 315 315 315 314 314 314 314 314 314 314 315 316 315 313 313 313 312 312 313 313 312 311 311
302 277 278 279 281 284 289 290 289 289 286 284 284 284 284 282 284 280 275 277 277 278 279 275 273 276 284 291 292 294 296 298 297 301 302 301 302 302 304 304 305 306 305 306 306 305 306 305 305 306 306 306 306 306 307 310 311 310 311 312 312 312 312 313 314 314 314 312 311 312 313 311 312 314 314 314 314 314 313 312 312 313 313 313 313 311
283 281 279 274 275 279 281 285 286 287 285 281 282 282 284 285 283 282 281 279 277 278 277 275 271 275 288 292 295 296 298 298 298 300 302 302 301 302 303 302 303 304 304 305 305 305 305 305 305 305 304 304 304 305 305 308 309 309 310 310 311 311 312 312 311 313 313 312 312 311 310 310 312 312 313 314 315 315 314 314 314 313 314 313 314 313
282 281 277 273 272 271 272 273 274 278 281 281 283 282 283 284 283 281 279 275 274 279 278 272 271 278 284 289 290 294 295 295 297 298 299 301 302 302 302 303 303 304 304 304 304 305 304 304 304 304 303 304 304 305 305 306 307 308 309 309 310 311 311 312 312 313 313 312 311 310 310 312 312 312 312 313 312 312 313 314 313 312 313 314 315 314
283 283 279 277 274 275 277 279 283 284 281 281 284 283 282 282 282 281 277 272 274 275 275 279 282 281 285 284 286 287 290 295 297 296 299 299 299 301 301 302 303 303 303 303 304 303 302 301 301 302 302 302 302 303 303 304 306 307 307 308 310 310 311 311 312 312 312 311 310 310 311 311 312 313 314 314 313 312 312 311 310 311 311 312 311 311
282 280 283 281 281 280 281 283 285 285 282 282 281 283 282 281 280 278 276 279 279 277 275 280 281 281 282 283 285 287 288 288 291 295 297 297 297 298 297 297 301 298 298 298 300 301 301 300 299 299 299 299 300 299 300 300 301 302 303 305 306 308 311 312 311 312 311 310 310 311 312 312 312 313 313 313 313 313 312 312 310 311 311 311 311 311
283 280 284 284 283 284 284 285 285 285 284 283 282 281 281 281 281 282 280 282 280 274 275 281 281 280 282 284 285 286 287 288 289 290 292 294 295 295 296 296 296 296 296 297 297 297 298 299 298 297 298 298 299 299 299 299 299 299 299 300 302 305 307 309 310 310 310 310 309 310 311 311 311 311 312 312 312 311 312 312 311 312 311 311 311 311
284 280 286 284 284 284 284 285 286 285 284 284 284 284 283 282 281 281 280 280 280 279 279 281 281 280 283 283 285 287 288 289 290 292 293 292 293 295 295 295 296 295 295 295 296 296 297 296 296 297 297 297 298 298 298 298 297 298 298 298 300 302 302 307 307 308 307 307 307 307 308 309 309 310 311 312 312 311 311 311 311 311 311 311 311 311
285 281 288 284 280 283 284 284 285 285 285 283 284 284 283 283 282 280 281 281 282 281 280 281 281 280 284 285 286 288 288 290 291 290 290 291 293 293 292 292 293 295 296 295 295 295 295 295 295 295 296 296 296 297 298 297 297 297 296 297 298 300 301 305 305 307 307 307 306 306 306 306 307 308 309 310 309 310 310 311 310 310 310 310 310 311
285 282 283 280 277 281 283 281 282 284 284 283 282 283 283 281 279 281 279 280 278 279 280 281 279 277 284 285 286 287 288 287 287 288 290 291 292 293 292 293 293 294 295 295 295 296 296 296 295 294 294 294 294 295 296 296 296 296 296 296 296 297 298 300 301 301 300 300 298 300 303 303 303 303 305 306 309 309 309 309 309 310 310 310 309 309
280 281 279 276 275 274 279 281 280 279 280 278 276 281 283 282 282 282 282 283 282 280 276 275 278 282 284 286 285 285 286 286 286 287 288 290 291 293 293 293 294 295 294 295 295 296 296 296 296 295 295 294 294 295 296 295 294 295 296 296 296 296 296 296 296 295 295 295 296 296 298 298 298 297 297 298 299 298 299 302 305 305 305 305 303 302
281 280 277 278 275 272 280 279 279 277 269 269 279 284 285 282 282 280 279 280 282 282 280 281 281 282 282 284 284 283 284 285 286 287 288 288 289 291 293 293 294 295 295 296 296 295 295 295 294 295 296 296 295 295 294 295 296 295 295 296 294 294 293 294 294 294 295 295 295 295 295 296 296 296 296 296 296 296 296 297 297 296 296 298 297 297
280 278 276 275 271 274 274 274 273 268 268 281 284 284 285 284 283 281 281 282 282 283 283 283 283 283 283 284 284 284 285 286 287 287 288 289 289 288 290 292 293 294 294 294 295 296 295 296 296 297 297 298 299 298 298 297 295 295 296 295 295 294 294 293 293 293 294 294 295 294 294 295 296 296 295 295 294 294 294 295 295 296 297 295 295 296
277 277 275 275 270 272 270 267 267 265 279 283 283 284 287 284 282 283 280 281 282 282 283 281 282 283 283 284 285 286 285 286 286 288 287 288 289 288 288 289 291 294 294 294 294 294 296 298 298 299 298 300 300 302 301 297 295 295 295 295 296 295 295 293 294 293 293 294 294 294 295 295 294 295 294 294 294 294 294 294 294 294 294 293 292 293
282 279 278 275 276 271 268 267 268 278 279 281 280 281 281 280 281 278 274 278 282 282 281 281 281 282 283 283 284 283 284 284 283 285 287 287 288 289 288 288 289 291 292 292 293 295 297 297 298 299 300 301 300 300 298 298 296 296 295 295 294 293 294 294 294 294 294 296 295 296 295 295 294 295 294 293 294 294 294 296 295 294 293 293 290 291
283 282 277 278 274 271 270 267 269 269 267 274 278 283 284 284 284 282 278 276 282 282 282 281 280 281 281 282 282 282 283 281 280 280 285 287 287 288 288 288 289 289 289 290 291 292 292 293 295 298 297 298 298 298 299 299 297 296 297 298 297 295 296 295 295 295 295 295 296 296 294 294 294 294 295 293 294 294 293 292 293 293 295 296 294 293
284 282 279 280 274 271 269 266 265 265 266 269 277 282 284 284 284 281 277 275 280 280 282 281 281 280 281 281 281 282 281 277 278 280 284 286 286 287 286 287 287 287 287 288 289 290 291 291 292 293 293 293 295 297 297 296 297 297 297 297 297 297 297 298 298 296 295 295 294 295 295 294 294 294 295 295 294 293 293 293 294 293 292 291 291 291
282 278 277 274 272 273 270 269 268 267 269 278 280 282 284 284 284 280 270 268 279 281 282 281 281 281 281 282 282 282 280 276 280 283 286 287 287 287 286 286 287 287 287 288 288 289 290 290 290 290 290 290 290 291 293 294 297 297 296 298 298 297 296 297 298 297 295 295 296 297 296 295 297 296 296 296 295 294 294 293 293 293 292 290 290 291
275 275 277 273 272 274 274 271 274 276 279 282 282 283 284 285 283 273 267 272 281 282 283 282 281 282 282 282 282 279 282 284 285 286 287 288 288 289 289 289 287 287 287 288 289 292 287 288 288 288 288 289 290 290 290 290 292 293 295 295 294 295 297 298 296 296 298 297 296 297 297 297 297 297 296 296 296 295 295 294 294 292 292 291 289 289
273 273 275 275 273 272 271 272 274 276 281 284 285 286 285 282 275 271 278 281 281 281 283 283 282 282 281 281 281 281 282 284 287 286 286 287 287 288 289 290 290 290 291 291 291 291 289 288 288 288 289 290 290 291 291 290 289 291 290 290 291 292 292 293 293 294 295 293 294 294 295 297 296 296 297 296 295 296 295 294 294 293 292 289 289 289
276 273 274 273 276 274 272 271 272 270 280 285 286 284 285 276 277 284 285 285 285 283 283 283 282 283 282 282 282 282 280 281 283 283 285 285 286 286 287 287 287 287 288 289 289 289 290 288 289 289 288 289 289 290 290 291 290 289 289 288 290 290 290 291 292 293 293 293 294 295 295 295 295 297 298 296 295 293 294 292 292 291 290 290 289 288
281 275 275 275 280 272 272 271 272 278 280 285 283 277 282 283 286 286 285 284 286 285 283 282 282 283 283 285 285 285 284 285 285 285 285 285 285 286 286 286 286 286 286 287 287 287 288 288 289 288 288 289 290 290 291 291 291 290 289 290 291 290 292 291 291 290 290 291 291 292 293 296 297 296 295 295 293 292 292 291 291 290 291 289 290 288
280 276 276 272 278 274 274 277 282 284 284 285 285 284 286 287 287 287 286 285 284 285 284 282 284 285 284 286 286 286 285 287 286 287 286 286 285 286 286 287 287 286 286 286 287 288 288 287 288 288 288 288 289 289 290 291 292 291 290 291 291 291 292 292 292 292 291 290 290 290 290 291 292 293 293 292 293 291 291 290 290 292 288 291 289 288
281 280 278 278 276 281 282 283 284 284 284 285 286 286 286 287 287 286 285 284 284 284 283 284 285 284 285 285 284 283 283 284 283 284 285 285 285 285 286 286 287 287 287 287 286 287 287 287 287 287 288 289 289 288 289 289 289 290 291 292 293 293 293 292 292 292 292 291 291 290 289 290 290 289 290 290 290 290 290 292 291 292 288 290 290 289
279 279 277 274 278 274 271 279 279 281 282 283 283 284 284 284 285 285 284 283 285 284 283 283 283 283 283 283 283 282 281 281 282 282 283 283 284 284 285 285 286 286 286 286 287 287 287 286 287 287 287 287 288 287 288 288 288 289 289 290 292 293 293 293 293 292 292 292 292 293 292 291 291 291 290 288 287 288 290 290 289 290 289 290 290 289
277 280 276 277 274 269 270 278 280 281 282 283 282 282 284 285 286 285 285 284 284 284 284 284 283 283 283 282 282 281 281 281 280 282 282 283 284 284 285 285 285 286 287 286 286 287 287 287 286 287 287 288 289 287 288 288 288 289 289 289 289 290 290 291 291 291 292 292 292 292 292 292 289 291 290 287 284 289 289 288 288 290 291 290 290 289
277 279 271 277 276 277 279 280 281 282 281 283 284 283 283 283 283 283 283 283 283 283 282 282 283 283 282 282 281 281 281 282 282 282 283 283 284 284 284 285 285 286 286 286 287 287 287 287 288 288 287 288 287 287 287 288 288 289 288 289 289 289 289 289 290 291 291 291 291 291 291 291 292 292 290 290 284 282 283 287 289 291 290 288 290 294
277 275 277 274 271 269 273 279 282 275 274 278 281 282 283 283 282 282 282 282 282 282 282 281 282 282 282 281 281 281 280 281 282 281 282 283 283 284 284 284 285 285 285 286 287 286 286 287 286 286 286 287 287 287 287 288 288 288 288 288 288 288 288 289 289 289 289 290 290 291 291 291 291 291 290 289 286 285 286 285 286 286 289 290 291 292
277 277 274 268 266 267 274 278 280 279 278 279 281 283 283 283 282 283 282 282 283 282 282 280 280 280 281 281 281 281 280 280 281 281 281 282 283 283 284 284 285 285 286 287 287 287 285 284 286 285 285 285 286 286 287 287 288 288 289 288 289 288 288 288 288 288 288 288 288 289 290 289 290 290 288 287 286 287 287 285 286 287 287 288 288 290
Wind_Speed
1 1 5 5 7 7 5 8 9 4 3 1 1 1 6 6 7 5 4 4 1 4 1 4 1 5 6 10 8 7 6 4 4 6 7 8 9 9 9 9 10 11 13 12 13 10 6 5 3 3 4 3 1 3 4 8 9 9 10 10 9 7 7 8 7 5 6 5 4 3 3 4 1 3 3 3 1 2 2 3 2 1 0 2 4 3
2 1 7 9 10 10 3 1 2 1 1 3 3 2 5 4 4 5 3 3 3 1 3 2 5 5 8 6 7 5 6 8 9 9 9 11 9 10 11 10 9 8 4 8 8 8 6 4 5 5 5 4 6 5 7 10 10 9 10 11 10 7 6 7 8 7 5 4 5 5 4 3 2 3 5 3 2 2 3 3 3 2 2 2 1 3
1 6 10 11 6 1 2 2 2 3 2 0 3 3 0 5 4 9 3 5 5 3 1 0 6 2 1 2 6 12 11 7 9 14 16 14 11 10 10 10 9 8 9 9 7 6 7 7 8 8 6 4 4 6 8 9 9 9 9 9 9 8 8 6 7 8 7 3 4 5 4 5 3 1 1 3 2 3 5 4 3 4 4 3 2 1
3 7 12 1 4 3 1 3 2 1 2 3 3 0 3 3 2 5 5 6 8 3 1 1 7 1 4 1 3 5 10 5 8 6 5 11 14 13 14 14 13 12 12 13 11 9 6 4 6 7 7 6 5 5 5 7 10 8 9 8 8 7 7 7 6 6 5 6 6 5 6 3 4 4 2 4 3 3 5 5 3 4 5 4 3 3
8 8 4 4 4 4 4 1 2 1 5 2 3 1 1 2 2 3 4 3 3 2 4 5 7 2 5 4 3 6 2 2 3 5 4 3 4 4 2 5 9 14 14 14 11 10 10 10 10 9 8 8 7 7 8 8 8 7 10 10 10 9 8 7 7 7 7 8 7 6 5 5 7 4 4 5 5 3 3 4 5 3 3 4 4 4
9 10 1 3 2 2 4 4 5 5 5 3 5 6 5 3 4 2 3 2 6 1 5 2 2 1 3 4 6 4 0 1 3 7 9 9 6 6 9 10 6 4 5 12 16 16 15 11 7 6 9 9 8 7 6 7 8 9 9 9 8 7 6 8 7 8 8 7 8 7 7 6 5 5 4 5 5 3 4 4 1 3 2 4 5 4
6 3 2 5 5 2 4 5 4 6 5 0 5 6 5 3 2 0 2 4 1 2 2 2 3 3 5 1 1 2 6 7 2 8 6 3 4 5 8 7 8 8 7 4 3 4 9 9 9 7 9 10 9 7 6 6 7 9 11 10 10 8 6 7 7 7 8 7 6 6 7 7 7 6 1 1 1 4 2 3 4 3 4 4 6 4
0 4 3 0 1 3 2 4 4 9 6 5 2 5 4 5 2 1 4 2 1 1 3 7 3 2 1 1 1 4 5 6 5 5 4 7 6 7 6 6 6 8 8 8 7 6 6 8 12 12 11 11 10 8 7 7 7 10 11 10 9 6 7 6 7 6 7 8 5 5 5 5 6 5 5 4 2 1 3 5 3 4 4 4 4 5
1 4 0 1 2 3 6 6 5 7 5 3 3 5 5 4 4 4 4 2 0 1 4 5 3 1 1 3 3 2 4 3 8 9 8 7 8 7 7 7 8 8 8 8 8 9 10 10 9 8 10 9 8 8 9 8 8 8 8 8 7 7 7 7 7 7 5 7 7 7 6 4 1 3 4 3 2 3 2 5 3 4 3 4 4 3
2 5 4 3 4 5 5 4 10 9 2 5 6 5 4 5 5 3 2 4 2 4 2 1 1 1 5 6 4 2 1 4 8 11 13 12 12 10 9 7 5 5 7 7 8 8 8 8 7 6 6 7 8 7 6 7 7 7 6 7 7 6 6 7 6 6 5 6 7 7 6 7 4 2 3 3 3 3 3 4 3 3 4 3 4 4
4 5 6 4 5 6 5 3 5 9 6 3 4 2 3 7 3 3 6 2 5 1 3 2 2 3 2 4 2 2 1 1 5 5 5 4 4 5 5 6 7 8 7 8 5 3 3 3 4 6 9 8 6 6 7 8 8 7 7 6 5 5 7 5 5 6 8 7 8 8 8 9 8 5 4 5 3 3 3 4 2 3 2 2 3 3
5 3 0 3 1 2 2 2 2 1 1 3 1 2 3 1 7 4 4 5 4 2 3 3 1 1 2 3 5 5 6 5 8 9 10 11 11 8 6 6 5 5 5 4 5 4 4 4 4 5 7 7 9 8 9 8 7 4 4 9 11 9 7 5 2 5 7 8 7 7 9 9 9 8 6 6 6 4 4 4 3 1 2 2 1 2
3 4 2 7 3 6 2 2 2 3 4 5 6 6 4 2 3 2 3 1 2 4 1 0 3 2 3 2 6 10 7 5 4 7 6 10 7 7 8 8 6 4 5 6 5 5 5 7 7 6 6 5 6 9 8 4 10 15 17 15 12 7 6 5 4 6 5 5 5 6 7 7 8 8 7 6 6 4 4 4 4 3 3 1 2 2
5 4 5 5 4 1 5 5 1 2 2 5 4 4 4 1 1 2 1 0 2 4 5 1 0 1 2 3 2 5 6 4 3 2 4 2 9 13 10 7 5 4 5 5 5 5 6 6 6 7 8 8 7 5 4 11 14 13 13 14 12 9 10 10 10 7 5 4 4 4 6 6 7 7 7 6 7 5 3 4 4 4 5 4 4 4
1 1 5 1 1 2 4 6 9 4 4 4 2 9 7 7 4 3 4 4 6 6 2 3 2 3 3 2 5 4 3 4 5 7 7 9 8 6 7 7 7 7 5 4 3 4 5 4 5 7 7 7 6 4 10 11 9 9 9 10 13 12 9 8 7 7 7 5 5 4 5 6 4 7 7 6 6 6 4 3 3 3 3 4 3 4
3 5 5 5 1 2 4 1 4 5 3 1 2 6 6 4 7 1 3 2 2 1 1 0 1 3 5 2 3 2 3 8 6 10 12 11 9 10 9 7 6 7 7 6 4 2 0 2 3 3 4 3 3 9 11 11 10 10 8 13 13 8 4 6 3 8 10 10 9 8 7 7 4 4 6 5 4 4 3 4 4 4 4 3 3 3
2 2 2 8 2 1 1 2 2 4 3 3 3 3 4 2 9 5 2 1 4 5 2 0 1 1 5 5 7 7 6 7 6 7 10 10 10 12 9 9 10 7 7 6 8 6 5 3 1 2 4 3 4 8 11 11 13 14 14 14 12 9 9 14 12 8 4 3 7 8 7 6 4 5 8 8 6 6 4 4 4 4 4 2 2 3
7 4 3 2 2 1 0 1 4 3 3 5 2 5 2 3 6 6 3 3 3 3 3 2 2 0 3 3 4 7 4 3 4 4 4 4 11 9 8 12 10 6 3 6 9 7 3 3 2 2 2 4 6 10 12 12 10 9 7 7 11 10 10 10 6 5 6 5 1 4 8 8 8 7 7 8 8 5 6 4 3 1 1 4 3 2
4 0 1 1 3 5 5 4 6 4 2 2 3 2 3 0 1 3 6 0 1 1 1 1 1 1 2 2 2 3 4 2 2 3 4 5 5 7 5 8 6 9 10 7 8 4 0 2 4 4 2 3 5 8 11 11 9 6 6 11 16 16 16 12 7 7 9 10 9 8 9 10 8 7 8 8 9 5 6 7 5 4 5 2 1 1
2 4 4 3 1 2 4 5 1 5 6 2 3 1 1 3 2 3 4 4 7 2 2 3 4 1 2 2 3 4 5 5 5 4 4 4 4 2 3 3 4 3 4 4 5 5 3 3 5 5 4 4 6 8 9 9 7 7 7 9 10 8 4 6 9 8 9 10 7 5 5 8 8 8 9 10 11 8 7 7 6 6 4 5 3 2
1 1 3 2 3 2 2 1 2 3 1 4 7 4 2 3 1 4 1 1 4 5 4 3 1 2 5 4 2 4 5 5 10 7 5 5 4 3 3 2 3 4 4 4 5 5 5 5 4 4 4 4 4 4 6 8 9 6 5 6 7 10 8 7 9 9 10 7 7 7 7 5 4 5 6 7 8 10 8 6 6 6 6 3 3 2
3 1 6 2 5 3 2 3 1 0 2 3 4 2 3 1 4 4 3 1 2 5 4 5 4 5 8 2 1 1 4 4 4 10 9 9 9 3 2 3 3 4 2 3 4 5 5 5 5 6 6 5 4 3 4 3 5 7 7 6 6 4 6 8 7 9 9 6 5 3 4 4 3 4 3 5 5 4 5 5 7 6 4 5 5 4
2 3 5 2 2 3 1 2 3 1 6 6 6 3 4 3 5 4 5 4 2 1 5 4 6 5 5 2 2 1 1 2 3 4 7 4 5 8 6 3 2 3 3 1 2 4 4 4 5 5 4 4 3 3 4 3 4 6 7 6 5 6 5 5 6 4 3 3 1 1 2 4 4 4 5 5 4 2 2 3 3 4 6 6 5 4
5 2 3 2 4 5 3 4 2 2 2 5 5 2 3 4 1 4 2 5 6 1 1 1 1 3 3 5 3 1 4 4 2 1 8 4 3 2 4 3 5 4 3 1 2 2 3 3 3 4 4 4 2 2 3 4 4 4 5 6 5 5 5 4 4 4 3 4 4 2 3 3 3 2 2 4 2 1 2 2 1 1 3 2 1 2
1 1 4 2 3 2 3 5 4 5 7 3 2 3 1 1 3 1 3 0 5 3 5 7 4 3 1 6 5 4 6 5 3 2 5 10 3 4 4 3 3 3 4 4 3 2 3 3 4 4 4 3 2 2 1 0 2 2 2 5 5 5 4 4 3 5 5 7 7 5 5 4 5 7 6 4 1 3 6 6 3 1 3 2 0 0
2 1 2 2 5 4 3 2 4 1 1 1 1 4 4 6 4 2 0 3 3 1 4 4 2 5 4 6 8 5 5 5 2 4 2 4 9 7 5 6 6 6 7 7 6 5 5 3 2 3 4 3 2 2 1 1 1 1 1 0 5 6 5 4 4 6 7 7 8 7 7 8 7 6 5 3 2 3 5 6 3 2 2 4 5 3
2 1 3 4 5 6 3 3 2 2 3 4 2 3 3 2 2 6 5 4 2 3 2 2 5 5 2 8 8 8 5 1 6 4 7 6 4 5 5 5 4 3 4 5 6 5 5 5 4 2 4 4 3 2 2 2 1 1 2 2 2 5 5 4 4 5 7 7 8 7 6 5 5 7 8 7 6 5 5 6 5 3 2 2 3 2
3 4 2 4 5 3 2 2 1 3 5 1 2 1 2 2 1 4 2 1 3 8 1 1 1 5 1 4 5 7 7 6 5 2 3 3 3 4 3 3 3 3 4 3 4 6 6 5 4 5 5 5 4 3 3 3 3 3 3 3 3 3 5 5 5 6 7 8 7 8 8 8 8 7 7 6 6 5 4 3 3 3 1 2 3 4
4 2 1 3 4 5 3 4 3 6 4 3 3 2 3 2 4 5 0 0 3 2 7 1 4 4 1 1 4 5 4 4 4 3 3 2 2 2 3 4 4 4 3 3 3 4 5 5 4 4 4 4 4 4 3 3 3 3 3 3 3 4 4 4 6 5 6 5 6 6 6 7 6 4 4 3 4 3 3 3 3 2 3 2 2 1
5 0 1 2 5 5 5 8 4 9 2 5 5 4 2 6 5 5 4 3 3 4 4 8 8 4 2 3 6 5 4 3 3 5 8 9 5 4 5 6 5 3 3 3 2 3 4 4 2 2 4 5 5 5 4 4 4 4 4 4 3 4 3 4 3 5 3 1 2 3 3 4 4 4 4 5 4 3 2 2 3 5 4 3 2 3
4 1 3 2 4 2 2 2 4 6 6 6 5 5 4 4 8 5 4 4 8 8 3 6 10 6 4 2 4 4 3 3 12 13 9 8 9 8 8 8 7 6 7 8 7 7 7 6 6 7 6 4 2 1 3 2 3 4 4 4 4 4 3 4 3 1 1 3 1 3 3 3 4 3 4 4 3 4 7 7 5 4 3 4 3 6
5 1 3 3 4 0 1 3 5 7 11 9 5 6 5 4 6 3 3 3 1 6 4 7 7 2 2 5 3 7 11 14 11 9 10 9 9 10 10 9 8 8 9 8 7 9 10 10 9 8 6 5 5 6 5 2 1 3 3 2 4 4 4 4 3 2 1 0 1 3 3 2 2 3 4 5 6 7 7 6 5 5 5 5 6 7
1 5 3 3 4 2 1 0 4 5 3 3 3 3 2 5 5 5 4 8 4 2 5 6 4 1 2 3 5 9 11 11 12 9 8 9 8 9 10 9 9 9 9 9 8 9 9 8 7 6 7 7 8 7 5 5 4 3 1 2 2 2 5 5 5 4 3 1 3 3 4 3 3 3 2 4 3 3 5 6 7 7 7 8 4 3
1 4 2 1 3 2 1 2 1 2 0 3 2 2 3 4 8 11 5 4 7 4 2 2 3 2 4 5 8 7 11 8 6 5 4 5 7 8 8 8 7 6 6 6 5 5 5 5 5 5 4 4 4 4 4 4 4 4 2 3 3 3 3 4 4 4 2 2 3 4 3 4 4 4 3 3 3 4 4 5 4 4 3 3 3 3
1 3 2 2 4 2 1 2 2 1 5 2 4 4 6 6 17 16 9 7 7 8 7 8 8 6 3 2 4 5 5 4 5 9 10 9 7 7 6 6 6 5 4 4 4 4 4 4 4 6 7 6 5 4 8 9 9 7 8 7 5 4 4 4 4 4 2 1 1 3 3 4 5 5 4 3 3 4 3 4 3 3 1 2 3 3
1 3 2 2 3 2 2 2 1 3 1 1 1 1 2 1 3 13 12 8 7 5 1 4 3 3 3 3 1 0 4 4 5 9 10 9 8 8 8 7 6 6 7 5 4 2 3 3 3 3 4 7 8 8 7 5 5 7 6 6 8 8 7 4 4 4 3 1 1 0 1 4 4 4 3 3 3 4 4 2 3 3 2 2 2 2
5 3 3 1 1 4 3 3 1 1 1 1 1 1 2 0 2 2 7 1 3 4 3 1 3 4 4 3 2 2 2 3 8 9 9 9 9 8 7 7 6 6 7 7 5 6 4 3 3 1 1 5 7 4 4 3 4 4 5 6 4 4 5 7 6 5 4 3 2 1 0 0 3 4 4 2 3 4 2 1 0 0 2 2 3 3
3 6 4 5 3 6 7 3 2 0 3 6 4 4 3 2 3 2 6 1 3 5 2 2 3 3 4 3 4 2 2 7 8 6 7 9 7 7 8 8 8 7 8 8 9 8 8 6 6 3 0 2 3 1 1 1 2 4 6 7 4 3 4 5 5 4 4 4 3 1 2 1 1 4 5 3 4 5 4 1 0 0 0 0 1 2
8 5 4 7 3 4 3 5 4 5 4 3 4 5 6 3 2 2 6 1 1 3 2 4 6 4 3 3 4 2 4 2 1 2 6 6 6 6 5 6 5 4 4 5 5 7 7 7 5 5 6 7 6 8 5 2 0 4 5 6 5 4 2 2 5 3 1 4 5 4 1 2 2 2 3 3 4 3 3 3 2 1 2 3 4 2
9 4 3 4 2 1 5 3 3 1 1 2 4 5 5 4 1 2 2 5 1 1 1 3 6 4 4 4 3 8 6 3 0 3 3 4 3 4 4 4 6 5 6 4 4 2 3 4 8 10 9 8 7 6 6 6 3 0 2 7 2 4 3 4 7 4 3 2 3 2 1 0 0 0 2 3 3 3 3 2 1 2 3 3 4 4
5 4 6 2 2 2 6 2 2 0 1 2 3 5 8 3 4 5 7 5 3 1 0 3 4 2 2 5 4 4 1 1 2 3 4 4 5 4 4 3 3 3 4 4 5 4 3 4 4 4 4 4 5 5 5 5 2 3 5 5 3 4 4 5 6 5 6 4 3 4 2 2 1 2 3 3 3 2 1 1 1 1 3 4 3 4
4 1 2 4 5 2 1 4 3 0 2 3 6 3 4 2 3 5 1 1 4 2 1 3 4 1 3 4 2 2 1 2 2 3 3 3 3 4 5 6 6 5 2 2 4 5 4 4 3 3 4 5 4 4 5 5 4 4 4 4 5 5 4 4 4 5 5 3 4 4 2 4 4 5 5 3 2 1 3 1 1 2 3 4 4 4
2 2 1 2 1 2 3 3 3 1 1 5 7 4 5 3 1 2 3 2 1 3 3 1 2 1 2 1 0 1 2 3 3 4 4 4 4 5 5 5 5 5 8 9 7 4 2 3 4 4 3 3 3 3 3 4 4 4 3 3 4 5 4 4 4 4 4 4 3 4 4 4 4 5 4 4 4 4 3 3 2 3 4 5 4 4
1 2 1 1 1 2 2 1 2 0 2 5 3 4 1 2 3 3 2 2 0 2 2 1 0 1 1 0 0 2 2 2 3 3 5 5 5 5 4 3 3 5 6 6 7 7 4 4 4 4 4 4 4 2 1 2 3 2 3 4 4 4 5 5 5 3 3 2 2 2 2 2 3 3 2 2 4 4 4 2 1 2 3 5 6 6
5 1 1 3 2 1 1 3 2 1 2 4 5 4 1 2 1 2 4 2 2 1 0 2 1 1 3 2 1 1 1 2 3 3 3 4 6 7 9 10 8 6 5 6 8 6 4 4 4 4 4 5 4 4 2 0 0 1 3 4 3 4 5 6 6 6 5 4 4 4 4 3 3 3 3 2 2 4 4 3 3 3 3 5 5 5
4 3 4 6 3 6 7 5 4 1 2 3 3 2 1 1 1 2 3 2 1 1 1 1 1 2 1 0 1 2 1 4 4 5 5 5 4 5 5 7 8 8 8 7 6 6 5 4 3 4 4 6 5 4 3 2 0 2 3 4 4 3 3 3 4 5 6 6 5 4 4 4 4 3 2 1 2 3 4 4 5 5 4 6 6 6
1 0 2 5 4 5 2 2 3 3 0 1 1 2 2 1 0 1 1 1 0 0 2 3 1 1 1 0 1 3 4 4 4 5 4 4 4 5 5 6 6 7 8 9 9 6 6 4 4 4 4 4 4 4 3 3 2 2 3 3 3 3 3 4 3 3 3 5 6 6 5 5 4 5 2 0 1 3 3 4 6 4 5 6 6 6
1 1 5 2 3 2 3 2 2 2 2 2 3 3 2 0 1 2 1 1 1 0 1 0 0 0 0 2 3 2 3 3 3 4 4 4 5 5 4 4 6 7 8 7 8 6 6 6 5 6 5 5 6 4 3 3 4 4 4 4 3 1 2 4 3 4 4 5 4 4 5 6 7 6 5 4 2 2 2 3 4 5 7 7 7 7
2 2 1 1 3 1 3 3 2 0 2 1 0 1 1 1 1 2 2 2 2 3 3 3 1 1 1 3 3 2 2 4 4 4 4 5 5 5 5 5 5 5 5 7 7 6 6 6 7 7 6 6 5 4 5 5 4 4 5 5 4 2 3 4 5 5 6 5 5 6 5 5 5 5 6 6 2 1 1 2 4 6 6 4 3 7
2 2 0 4 4 0 3 2 2 3 2 3 1 1 1 1 3 3 1 3 2 2 2 2 4 4 4 3 3 3 3 4 4 4 5 5 5 6 5 6 6 5 5 5 5 5 5 5 4 5 5 5 4 5 5 6 5 4 4 3 3 3 4 5 6 5 7 6 6 6 6 6 6 5 5 5 5 2 0 1 1 2 5 6 4 7
1 2 3 1 4 2 5 5 3 1 1 3 1 0 2 2 3 3 2 2 0 0 1 3 3 4 4 4 2 3 4 4 5 4 5 5 6 5 5 7 7 6 6 5 5 5 4 4 4 4 5 5 5 5 5 6 6 6 5 4 4 4 5 5 6 7 7 7 7 8 7 7 7 6 4 4 4 4 4 1 0 4 3 1 4 6
Wind_Direction
119 172 215 221 221 218 219 189 201 212 163 185 252 193 251 253 276 265 269 272 296 98 207 195 82 133 188 179 170 162 136 145 145 148 158 175 175 180 180 179 180 182 186 192 203 206 177 165 182 150 129 153 115 166 157 146 150 153 145 137 139 145 147 140 130 128 130 117 95 68 89 116 100 118 106 86 62 87 83 81 73 57 47 99 113 133
78 209 251 223 219 213 200 222 277 350 157 220 255 219 271 239 272 273 301 328 345 127 342 157 129 179 179 170 155 135 142 197 171 166 176 185 190 188 184 178 181 181 173 185 200 197 174 160 168 155 159 147 145 184 164 155 155 152 145 141 143 144 145 145 145 143 136 150 159 147 160 136 117 117 117 102 67 76 61 68 85 71 59 65 98 133
59 211 242 226 231 147 162 126 160 193 257 85 193 211 109 286 250 291 317 320 7 82 301 133 136 130 75 213 180 163 191 197 183 179 182 178 187 192 189 183 166 169 177 182 200 194 183 177 171 166 171 158 169 181 169 157 146 142 135 137 143 146 142 143 142 138 144 130 133 132 146 144 107 10 54 104 88 86 83 56 69 90 84 79 53 107
280 273 251 159 140 173 280 173 136 79 82 176 252 50 257 249 24 314 295 353 351 74 222 162 102 332 318 338 275 227 184 191 190 195 200 188 184 188 190 184 175 178 171 179 182 187 190 209 182 169 169 167 169 188 169 159 151 144 138 141 141 145 146 144 142 126 109 108 94 87 115 98 107 138 105 78 60 81 83 74 80 59 83 87 78 67
216 240 169 93 121 155 238 256 214 273 279 281 232 151 227 293 239 169 269 327 320 357 75 60 47 2 351 121 241 272 345 50 193 167 192 231 238 255 220 181 183 180 177 168 168 177 184 192 194 180 172 159 175 187 174 165 159 153 150 151 152 154 157 145 130 121 119 106 91 92 82 93 84 60 65 72 42 36 89 85 61 60 87 96 86 78
271 268 229 269 174 150 185 271 230 171 246 315 244 187 195 194 249 294 316 32 28 354 6 93 48 284 292 290 220 242 217 228 193 185 208 201 195 190 193 193 179 188 193 186 183 181 181 178 176 180 170 166 179 183 181 172 164 154 154 152 153 149 151 134 129 132 130 131 131 125 117 112 103 115 111 123 138 118 101 110 114 66 72 96 83 78
220 293 136 245 237 164 171 208 235 165 195 69 266 194 189 169 161 67 36 64 8 103 320 20 126 236 323 126 244 267 205 207 165 209 214 174 201 211 213 189 183 183 179 182 176 158 173 177 173 177 172 172 177 187 176 177 171 165 159 162 158 157 148 127 129 134 126 125 138 144 144 145 151 146 211 188 181 133 129 95 82 68 49 66 93 74
14 303 3 64 143 134 134 238 233 148 127 229 247 132 109 95 121 219 101 112 195 233 295 33 91 133 335 296 265 292 206 203 217 241 233 205 200 212 215 199 187 181 182 184 191 182 180 179 179 175 175 176 180 175 175 177 177 172 165 161 158 153 138 128 131 136 139 138 135 127 129 140 147 159 160 156 155 102 119 79 59 65 46 45 65 93
148 307 7 296 152 135 188 209 186 147 140 215 214 168 165 176 185 123 98 115 344 113 268 326 351 57 255 266 317 143 120 236 225 219 228 216 206 205 205 201 197 186 174 174 180 185 184 182 182 173 180 175 167 176 179 179 180 176 165 157 149 141 125 124 133 135 143 137 144 142 138 127 141 141 138 128 93 90 69 80 45 61 48 50 45 58
276 207 241 157 136 203 229 208 162 157 143 274 165 92 71 74 72 109 94 91 348 68 282 277 351 172 287 284 340 350 108 200 232 223 214 211 204 197 197 201 178 169 174 185 186 189 190 185 180 173 157 165 180 177 176 178 176 174 157 154 151 133 114 123 125 129 131 138 142 141 146 138 136 114 83 79 91 76 65 82 62 64 66 61 57 48
259 319 166 134 204 212 206 207 170 176 187 118 95 100 27 41 22 26 64 85 65 43 256 246 294 136 304 276 240 46 103 193 272 283 251 239 228 215 220 186 181 179 179 185 170 140 164 161 150 156 169 173 168 177 181 181 179 172 159 144 116 80 77 82 106 138 152 161 160 156 155 147 147 154 141 121 88 88 81 102 79 82 77 59 92 80
337 340 87 248 167 115 144 110 45 61 28 127 84 113 68 359 10 27 346 40 91 268 256 261 243 99 162 299 312 231 267 254 213 230 211 199 197 196 184 189 183 179 171 146 136 142 140 128 142 155 167 176 180 181 186 189 172 145 81 76 64 56 74 84 105 154 169 167 166 156 155 153 156 155 156 153 155 154 142 141 140 88 74 65 48 86
294 253 250 313 226 164 106 114 297 29 18 87 87 44 113 246 45 250 8 237 159 174 228 234 115 37 222 215 275 307 316 309 246 211 223 182 185 178 181 181 176 152 137 145 147 143 162 171 169 171 180 176 187 192 192 121 62 65 70 70 87 108 131 134 162 179 179 161 156 155 155 154 156 156 153 154 151 162 154 154 141 133 146 162 111 148
264 289 337 289 318 138 131 150 270 148 347 107 138 133 95 96 53 217 280 302 308 294 263 293 282 235 243 302 337 317 324 301 310 38 85 307 182 179 171 154 130 121 133 137 147 166 178 180 186 181 179 189 192 193 118 85 97 104 119 133 132 161 172 170 163 162 146 140 144 150 154 161 161 156 153 155 155 166 161 163 161 167 174 186 192 183
82 345 291 162 238 283 135 164 180 173 154 212 149 145 180 144 159 221 192 188 204 183 258 269 71 228 92 241 335 309 311 14 34 55 70 76 63 63 84 92 98 98 85 94 118 167 181 197 194 189 191 191 189 119 84 102 106 108 132 152 155 159 176 168 155 128 136 147 153 153 158 163 182 159 157 159 156 157 162 180 167 185 192 193 219 212
175 197 257 221 258 150 204 285 121 97 58 164 152 76 99 223 148 136 211 142 178 148 26 160 205 167 110 270 297 304 24 22 43 66 64 60 59 66 57 58 81 88 72 66 56 19 358 247 229 219 209 195 137 94 100 103 100 107 145 157 189 166 93 56 112 164 159 167 162 155 160 178 193 175 150 146 143 151 169 177 180 192 199 217 213 252
18 285 271 318 13 173 168 164 283 115 178 247 103 172 209 160 105 91 57 56 87 55 233 237 341 356 294 346 352 334 49 32 20 56 85 85 73 71 63 59 41 30 80 82 68 33 349 14 347 236 198 174 119 107 119 130 142 163 168 163 148 134 181 180 191 191 165 117 148 156 160 161 180 184 161 154 167 179 178 180 196 194 203 212 216 234
141 233 296 52 67 15 353 132 96 54 144 82 158 232 135 94 119 121 157 338 61 143 249 19 206 251 66 207 328 343 36 7 8 22 37 84 113 105 123 117 126 106 18 68 73 58 338 357 12 353 227 187 145 129 137 151 164 174 160 128 115 157 201 202 160 97 75 60 19 159 166 177 175 188 170 158 163 184 172 186 200 189 200 214 212 210
118 217 299 264 240 299 353 63 20 331 25 145 208 199 91 229 165 331 96 125 109 208 268 13 260 276 158 253 333 261 176 167 55 20 34 19 71 114 136 129 133 133 142 130 119 141 85 30 47 38 38 104 115 139 146 154 165 160 124 134 156 183 195 183 125 140 147 152 175 199 185 177 178 192 172 164 157 192 187 185 186 193 212 211 211 207
49 165 287 302 101 300 32 61 68 296 328 18 70 41 358 100 156 125 194 165 119 217 88 277 50 187 230 212 206 227 245 178 132 89 60 51 24 55 82 83 77 63 71 84 92 92 76 52 50 52 60 93 130 138 145 153 154 158 161 154 162 176 162 143 150 163 171 173 170 182 202 191 181 197 175 172 161 180 200 191 183 191 195 214 187 196
67 109 180 281 292 34 36 337 178 168 7 349 28 341 356 23 212 105 46 85 162 161 170 155 6 283 264 215 185 228 195 214 152 147 142 122 101 70 59 82 106 101 105 107 107 108 99 85 74 72 71 80 91 118 143 160 165 150 154 176 174 167 164 160 163 173 189 187 167 172 197 195 172 211 203 174 165 169 191 194 186 187 193 152 183 142
84 78 176 303 31 28 206 245 189 185 176 142 144 109 183 106 120 132 236 24 82 104 193 123 218 271 269 169 234 238 217 196 203 154 158 150 138 131 107 69 73 81 76 116 123 116 101 90 79 62 54 57 82 108 152 164 141 145 166 179 172 158 171 166 169 186 187 190 177 163 174 178 160 207 197 160 168 190 177 198 193 182 153 178 185 167
148 144 95 100 154 171 203 23 17 349 113 105 109 50 134 142 100 93 134 246 35 73 117 146 123 267 248 315 337 218 145 291 216 159 136 140 138 144 133 109 49 75 72 22 74 97 94 94 93 94 97 101 129 155 172 190 193 176 164 166 163 165 173 174 174 181 170 152 51 358 163 155 163 187 199 169 118 125 169 213 196 164 175 184 183 197
90 64 67 329 327 317 328 306 1 81 79 29 14 29 62 19 253 169 179 183 133 179 84 34 69 254 288 350 331 134 93 91 43 127 135 116 95 73 92 116 131 128 111 62 8 20 74 81 91 97 98 100 97 135 176 207 210 210 166 156 150 165 163 154 152 147 114 91 81 82 100 110 105 105 96 97 90 133 119 98 132 148 151 148 144 230
67 299 125 96 31 344 340 344 358 348 50 75 20 329 352 131 91 157 109 77 97 214 164 116 180 267 290 1 13 47 75 74 99 73 143 131 142 150 147 159 151 140 130 125 135 127 91 92 104 107 98 86 73 57 44 106 242 239 217 143 141 142 159 147 128 117 112 112 114 108 101 89 97 97 87 83 90 85 61 56 32 62 133 118 85 115
86 162 95 141 160 152 161 182 240 278 285 296 10 337 4 46 9 41 35 5 113 256 102 111 177 252 278 13 15 23 68 67 30 126 91 144 153 163 164 172 173 163 157 150 143 120 105 96 60 81 96 81 45 34 22 17 10 328 312 55 113 135 147 150 137 132 134 130 121 117 112 118 112 109 112 109 130 145 129 139 157 198 187 161 177 159
117 82 86 157 149 178 197 194 250 116 43 63 299 9 328 25 51 95 107 79 157 190 75 233 162 171 28 358 352 341 345 98 147 161 153 163 186 178 167 161 159 146 136 132 128 125 115 102 117 121 90 84 64 37 19 18 15 359 340 332 95 124 133 142 139 137 126 122 121 124 128 121 142 158 172 178 171 170 145 150 163 145 154 124 89 117
61 53 358 99 67 150 177 123 174 122 114 150 106 14 343 33 70 82 98 176 143 88 43 268 300 104 17 332 341 345 343 333 330 296 203 170 161 151 135 115 92 86 75 87 109 124 131 143 142 123 115 107 104 83 43 26 30 29 15 3 31 91 127 134 137 139 137 138 138 145 155 170 188 187 192 166 154 159 157 188 186 180 156 122 156 185
128 108 272 82 38 52 63 80 84 72 65 93 86 18 36 338 76 94 194 67 107 137 189 153 88 90 309 321 324 306 319 304 309 327 320 317 5 22 66 96 110 109 94 100 111 130 140 141 138 119 107 117 117 108 103 85 54 44 42 32 33 76 93 132 136 145 149 153 153 167 176 179 191 185 164 136 144 152 209 206 228 183 193 189 185 239
92 82 219 91 103 59 52 80 72 100 129 64 36 28 33 79 69 82 65 3 112 102 116 114 94 73 347 328 321 317 327 343 24 34 31 27 1 22 46 33 20 32 73 81 66 49 30 26 23 84 121 132 132 134 128 120 105 96 89 69 66 69 61 98 105 121 105 126 175 171 179 182 187 181 148 152 164 187 267 287 251 257 232 174 177 212
102 253 117 74 82 58 17 24 102 121 112 83 43 45 71 99 70 43 71 50 73 70 68 95 81 47 347 342 3 351 351 40 47 35 28 24 19 21 33 24 18 27 38 34 34 48 60 52 36 25 17 5 0 71 127 130 126 117 104 103 91 90 87 105 103 77 125 174 191 185 160 168 186 150 147 162 166 164 196 213 216 230 265 288 259 250
66 166 54 67 91 81 4 82 95 88 85 81 44 16 15 42 70 354 56 314 127 153 151 92 68 45 313 355 8 30 42 43 40 26 27 22 21 32 37 27 25 28 42 40 40 48 50 49 43 35 27 24 20 356 343 345 46 80 95 86 102 116 108 102 107 111 110 219 167 158 160 172 145 162 175 167 185 186 185 182 185 192 215 219 224 227
82 127 109 92 97 247 268 178 156 102 60 22 334 306 26 77 112 121 64 37 33 119 80 108 171 217 294 321 59 37 54 47 41 28 22 24 28 41 44 43 44 46 46 45 43 49 49 48 40 36 31 35 29 26 3 339 345 25 350 90 117 98 92 99 122 130 128 134 134 143 152 147 143 175 185 210 198 170 148 154 160 174 177 198 209 170
58 92 122 118 138 234 295 318 2 60 162 231 243 267 205 169 134 86 37 10 3 53 126 164 112 5 31 33 71 72 62 50 52 43 64 61 37 38 46 49 45 54 57 52 48 49 53 47 35 41 58 39 12 25 360 19 8 338 344 349 18 51 61 83 74 98 90 62 95 106 125 136 136 136 143 121 104 101 113 123 140 151 169 150 142 131
97 80 128 142 98 199 323 13 44 286 234 317 3 59 89 119 99 96 80 45 19 28 50 51 37 32 355 16 81 88 80 67 45 43 27 25 40 48 44 42 38 43 46 47 42 35 50 71 47 30 12 10 9 19 14 12 10 356 19 10 26 31 51 46 50 36 23 63 29 106 99 113 117 127 128 113 112 100 100 113 112 88 86 99 115 117
181 118 178 58 107 68 58 50 134 250 231 41 312 47 172 35 68 82 49 17 18 16 24 66 31 34 40 33 354 67 83 35 48 42 26 12 21 30 35 25 14 27 34 14 29 14 50 66 85 58 3 354 351 6 32 17 13 19 21 22 28 7 6 17 45 28 43 25 350 349 142 141 140 146 149 143 142 122 126 129 142 146 152 120 84 68
143 88 103 128 116 163 192 115 193 127 58 273 346 1 57 64 355 116 119 6 0 345 27 36 44 25 28 14 336 314 342 16 47 24 11 12 3 12 29 24 22 18 15 16 22 353 323 326 337 319 35 10 335 349 18 353 30 14 8 16 9 30 17 13 10 360 5 29 346 24 40 248 167 171 177 179 148 150 160 177 204 174 172 105 96 119
167 165 227 147 247 119 127 88 55 94 184 236 238 271 307 239 267 187 113 98 360 353 349 64 70 34 22 354 8 329 67 48 24 348 345 352 359 2 11 21 19 23 21 11 13 20 21 12 350 344 298 168 243 245 244 78 46 347 353 326 327 14 41 9 345 332 338 359 3 323 288 251 177 177 184 169 195 193 205 190 280 295 42 115 81 66
29 69 126 151 168 89 95 134 187 168 240 209 265 274 294 284 262 132 63 113 345 329 343 110 74 68 70 47 338 45 86 85 268 292 323 344 344 356 10 7 1 2 8 13 15 14 8 8 360 7 20 7 349 326 333 345 74 36 327 306 323 329 1 24 304 281 312 320 319 315 326 161 159 159 165 197 234 220 195 198 196 192 118 102 100 112
37 10 38 59 64 172 147 123 189 181 195 266 254 288 299 317 157 80 107 251 226 287 304 90 90 77 62 56 54 54 72 122 298 307 321 319 317 308 348 353 353 351 347 343 3 3 346 3 25 21 14 8 347 325 324 318 316 296 253 274 304 295 314 304 270 244 206 227 265 255 229 193 182 174 182 211 238 227 220 194 152 155 122 92 106 109
1 347 48 95 110 70 95 91 68 16 290 303 293 297 320 297 124 137 206 224 207 195 25 103 96 94 90 75 68 92 4 148 248 280 308 310 325 326 333 326 308 297 314 329 330 339 19 20 42 23 354 342 346 7 4 331 300 230 259 278 303 278 240 250 270 279 271 279 235 218 199 139 179 222 232 214 209 193 219 229 214 138 136 131 109 107
7 45 333 59 30 41 87 97 127 144 237 316 297 353 313 25 183 213 223 151 128 137 93 104 96 70 82 77 101 148 218 256 264 286 302 299 292 293 308 317 322 316 268 254 304 340 349 358 14 1 354 344 351 3 23 39 15 316 300 278 266 273 301 291 269 257 269 264 269 284 265 207 209 192 198 201 172 197 284 293 164 172 153 124 121 105
307 75 359 52 328 54 40 84 98 163 313 1 304 22 4 112 273 67 70 49 152 148 133 88 107 176 128 58 255 242 257 293 293 292 299 294 305 311 311 313 309 314 323 329 329 326 345 340 334 329 305 302 321 346 9 39 32 29 17 342 293 294 298 295 289 291 285 283 247 212 240 263 223 201 177 171 180 167 201 198 172 130 122 122 110 114
337 93 23 1 331 124 60 106 173 16 304 323 73 122 8 90 113 170 116 69 25 161 141 118 347 221 207 139 241 296 261 294 318 325 330 326 324 315 292 266 265 285 297 291 289 293 304 310 302 299 295 299 304 323 351 64 16 346 0 309 298 315 320 327 336 348 351 327 300 299 247 209 252 276 275 205 170 168 180 202 136 110 127 132 134 138
338 149 195 141 342 128 186 132 133 214 296 353 52 84 88 5 52 137 118 145 133 16 182 123 193 227 213 216 236 244 285 292 299 295 296 299 312 319 322 322 319 303 280 274 275 278 267 251 260 271 293 293 297 296 308 311 81 314 304 289 334 334 337 330 331 335 330 327 326 319 310 319 294 270 243 238 184 188 193 202 173 158 148 133 135 145
9 86 99 83 65 82 58 82 131 152 108 52 36 59 107 100 10 102 129 113 228 217 181 163 232 245 296 256 11 321 283 291 312 314 315 313 311 304 309 315 318 318 315 310 297 286 275 276 264 260 267 289 290 293 299 307 251 274 274 308 324 330 341 347 344 334 322 316 319 306 308 318 303 286 268 277 203 207 203 196 182 189 174 157 167 172
291 335 55 110 177 75 122 67 100 153 144 114 75 18 18 77 125 160 114 162 190 334 349 336 292 305 281 292 239 243 267 282 283 282 283 284 293 296 302 303 306 309 310 309 296 300 303 301 301 291 280 272 281 286 284 290 281 247 271 291 306 324 343 2 360 341 334 331 323 319 317 297 282 288 285 205 205 201 212 205 193 185 169 166 165 173
335 94 71 82 66 118 202 189 206 215 183 201 170 122 115 110 42 24 44 69 97 66 148 355 255 293 205 330 307 279 275 281 278 284 292 288 292 298 296 300 303 311 307 300 296 304 309 306 294 291 286 274 266 257 264 274 278 277 273 279 281 287 349 334 326 316 313 310 308 307 311 306 290 284 282 291 323 265 194 187 176 178 177 169 171 167
243 21 140 103 96 334 339 317 320 112 328 300 320 310 259 210 117 68 60 72 49 43 351 347 38 324 353 316 341 350 329 316 313 306 305 304 302 298 297 297 298 300 307 312 307 310 302 300 300 297 296 286 296 314 308 293 281 276 277 279 276 262 301 290 288 287 289 291 299 294 298 298 295 290 288 284 309 308 251 210 187 205 237 248 195 179
50 57 232 60 66 314 192 212 145 121 243 263 287 273 298 255 138 131 87 55 35 38 356 18 358 5 14 15 28 21 354 317 312 313 308 299 292 289 298 303 301 302 301 294 295 295 298 303 306 309 310 305 312 313 307 299 295 291 280 269 264 262 271 275 280 278 273 275 278 279 282 285 287 287 284 269 251 249 329 23 186 202 213 259 272 245
117 191 134 144 155 222 244 241 195 157 214 226 192 288 250 208 139 120 129 154 213 349 121 97 45 6 5 334 339 2 325 308 302 306 302 301 293 289 293 300 301 300 300 301 303 304 307 303 311 317 317 311 312 309 302 300 298 297 291 273 256 241 246 250 258 257 258 260 259 257 260 262 269 267 268 251 233 235 216 202 13 48 54 230 273 247